User: anonymous   Login
Location: Unspecified
(0.0000°N, 0.0000°E)
Time: 19:52:50
(UTC+00:00)
Language:

Orbcomm A7 (FM11) - Orbit

View from above orbital plane
View from above orbital plane
View from above satellite
View from above satellite

Ground track
Ground track

The orbit data is extracted from the following two-line orbital elements,

1 25114U 97084C   17269.52792146  .00000150  00000-0  94646-4 0  9991
2 25114  45.0157 106.9734 0007299  69.2924 290.8707 14.38607180 34903
Epoch (UTC): 26 September 2017 12:40:12
Eccentricity: 0.0007299
inclination: 45.0157°
perigee height: 758 km
apogee height: 768 km
right ascension of ascending node: 106.9734°
argument of perigee: 69.2924°
revolutions per day: 14.38607180
mean anomaly at epoch: 290.8707°
orbit number at epoch: 3490

The dashed part of the orbit path shows where the satellite is in the earth's shadow,  

DLR